Regional Weather Roundup
Issued by NWS

Home | Current Version | Previous Version | Graphics & Text | Print | Product List | Glossary Off
Versions: 1 2 3 4 5 6 7 8 9 10 11 12 13 14 15 16 17 18 19 20 21 22 23 24 25 26 27 28 29 30 31 32 33 34 35 36 37 38 39 40 41 42 43 44 45 46 47 48 49 50

000
ASUS43 KMKX 310400
RWRWI

WISCONSIN REGIONAL WEATHER ROUNDUP
NATIONAL WEATHER SERVICE MILWAUKEE/SULLIVAN WI
1100 PM CDT SUN AUG 30 2015

NOTE: "FAIR" INDICATES FEW OR NO CLOUDS BELOW 12,000 FEET WITH NO
SIGNIFICANT WEATHER AND/OR OBSTRUCTIONS TO VISIBILITY.

WIZ001-002-006>008-014>016-023>028-310500-
NORTHWEST WISCONSIN

CITY           SKY/WX    TMP DP  RH WIND       PRES   REMARKS
SUPERIOR ARPT  CLEAR     62  61  99 SW3       29.88R
ASHLAND        CLEAR     68  66  93 SW9       29.90S
HAYWARD        CLEAR     66  63  90 S8        29.94S
SIREN          CLEAR     69  65  86 S7        29.93S
CUMBERLAND     CLEAR     63  61  94 S6        29.96S
RICE LAKE      CLEAR     63  61  93 S3        29.97S
CHETEK         CLEAR    N/A N/A N/A MISG      29.96S
LADYSMITH      CLEAR     64  63  94 CALM      29.99S
EAU CLAIRE     NOT AVBL
MENOMONIE      CLEAR     63  62  96 S3        29.97R
NEW RICHMOND   CLEAR     66  65  96 S7        29.96R
OSCEOLA        CLEAR     67  67 100 S7        29.96S
$$

WIZ003>005-009-010-017-018-310500-
NORTH CENTRAL WISCONSIN

CITY           SKY/WX    TMP DP  RH WIND       PRES   REMARKS
MANITOWISH WTR CLEAR     65  65 100 SW6       29.97S
ARBOR VITAE    CLEAR     65  63  93 SW5       29.98S
WOODRUFF       CLEAR     65  63  93 SW5       29.98S
RHINELANDER    CLEAR     65  62  90 SW8       30.00R
EAGLE RIVER    CLEAR     65  63  94 SW5       29.97S
LAND O LAKES   CLEAR     65  62  90 CALM      29.98R
PHILLIPS       CLEAR     63  63  99 S5        29.97F
TOMAHAWK       CLEAR     61  59  96 CALM      30.00S FOG
MEDFORD        CLEAR     62  62  99 S5        30.00S
MERRILL        CLEAR     60  60 100 SW3       30.00S
$$

WIZ029-030-035-036-043>047-310500-
CENTRAL WISCONSIN

CITY           SKY/WX    TMP DP  RH WIND       PRES   REMARKS
WAUSAU         CLEAR     65  62  90 CALM      29.98F
MOSINEE        CLEAR     61  61 100 S3        30.01S
MARSHFIELD     FOG       63  60  90 SW5       30.00S VSB 1/4
STEVENS POINT  CLEAR     62  61  96 SW3       30.00F
WAUPACA        FOG       64  64  97 CALM      30.00S VSB 3/4
WAUTOMA        FOG       61  61 100 CALM      30.01S VSB 1/2
WISC RAPIDS    CLEAR     63  61  93 CALM      30.01S FOG
CAMP DOUGLAS   FOG       59  59 100 CALM      30.00S VSB 1/2
$$

WIZ011>013-019>022-031-037>040-048>050-310500-
NORTHEAST WISCONSIN

CITY           SKY/WX    TMP DP  RH WIND       PRES   REMARKS
ANTIGO         CLEAR     63  62  97 SW6       30.00S
SHAWANO        CLEAR     67  64  89 SW3       29.99S
OCONTO         CLEAR     64  64 100 S3        29.97S
STURGEON BAY   CLEAR     64  61  88 SW8       30.00F
GREEN BAY      CLEAR     63  62  97 S3        29.99S
MANITOWOC      NOT AVBL
APPLETON       CLEAR     63  63 100 S6        29.99S
CLINTONVILLE   CLEAR     63  61  94 S3        29.99S
OSHKOSH        CLEAR     60  58  92 S6        30.00S
$$

WIZ032>034-041-042-053>061-310500-
SOUTHWEST WISCONSIN

CITY           SKY/WX    TMP DP  RH WIND       PRES   REMARKS
LA CROSSE      CLEAR     64  62  93 CALM      29.98S
SPARTA         CLEAR     60  58  94 CALM      30.01S
VIROQUA          N/A     64  64 100 S5        30.02S
BOSCOBEL       FOG       62  61  96 CALM      30.01S VSB 1/4
PRAIRIE DU CHI CLEAR     63  61  94 E3        30.00F
PLATTEVILLE    CLEAR     63  63  99 S5        30.03S
$$

WIZ056-057-062-063-064-067-068-310500-
SOUTH CENTRAL WISCONSIN

CITY           SKY/WX    TMP DP  RH WIND       PRES   REMARKS
REEDSBURG      CLEAR     62  61  99 CALM      30.01F
BARABOO/DELLS  CLEAR     62  60  94 S5        30.02S
LONE ROCK      FOG       61  61 100 E3        30.02S VSB 1/4
MINERAL POINT  CLEAR     64  64 100 S5        30.04R
MADISON        MOCLDY    65  62  90 S3        30.02S
MIDDLETON        N/A     60  60  99 CALM      30.04R VSB 1
WATERTOWN      CLEAR     62  62 100 CALM      30.03S
MONROE         CLEAR     63  63 100 S6        30.04S
JANESVILLE     CLEAR     63  61  94 CALM      30.03S
$$

WIZ051-052-058>065-066-070>072-310500-
SOUTHEAST WISCONSIN

CITY           SKY/WX    TMP DP  RH WIND       PRES   REMARKS
MILWAUKEE      CLEAR     63  61  93 SW6       30.03S FOG
WAUKESHA       CLEAR     63  61  94 CALM      30.05S
MILWAUKEE/TIMM CLEAR     63  59  88 S3        30.04S FOG
RACINE         CLEAR     63  60  90 SW5       30.05S FOG
BURLINGTON     FOG       58  58  99 CALM      30.04S VSB 3/4
KENOSHA        FOG       63  62  97 S3        30.04F VSB 3/4
FOND DU LAC    CLEAR     62  60  93 S5        30.01S
SHEBOYGAN      CLEAR     60  59  96 S6        30.02S FOG
WEST BEND      PTCLDY    61  59  94 CALM      30.03S FOG
JUNEAU         CLEAR     62  61  97 S3        30.04S
$$

LSZ147-162-310500-
LAKE SUPERIOR

STATION/POSITION TIME  TEMP    WIND        PRES    WAVE
                       AIR SEA DIR/SP/G            HT/PER
                 (UTC) (F)     (DEG/KT/KT) (MB)    (FT/S)
W MID LAKE BUOY  0250   63 55  220/ 10/ 12 1011.4R   1
DEVILS ISLAND    0300   72     210/ 12/ 13 1011.1R
PORT WING        0300   71     190/  7/ 11 1011.9F
SAXON HARBOR     0340   71     200/  8/ 15 1011.5S
$$

LMZ867-665-643>646-310500-
LAKE MICHIGAN

STATION/POSITION TIME  TEMP    WIND        PRES    WAVE
                       AIR SEA DIR/SP/G            HT/PER
                 (UTC) (F)     (DEG/KT/KT) (MB)    (FT/S)
CHAMBERS ISLAND  0300   65     190/  6/ 12 1014.6S
S GREEN BAY BUOY 0300   66 63  190/ 10/ 12 1016.5S
N MID LAKE BUOY  0250   64 65  210/ 17/ 21 1014.2S   3/ 4
NORTHPORT PIER   0300   63     160/  3/  8 1014.6S
SHEBOYGAN LAKESH 0300   63     190/ 12/ 13 1016.8F
PORT WASHINGTON  0340   55      CALM  /  3 1017.3F
ATWATER BUOY     0300   54 49  170/  6/  6 1018.1F
MILWAUKEE LAKESH 0300   62     160/  3/  4   N/A
S MID LAKE BUOY  0250   67 68  160/  6/  6 1017.0S   0
KENOSHA   LAKESH 0300   65     190/  7/  9 1016.9F
$$

TC  - TEMPERATURE IN CELSIUS
VSB - VISIBILITY IN STATUTE MILES
WCI - WIND CHILL INDEX
HX  - HEAT INDEX




USA.gov is the U.S. government's official web portal to all federal, state and local government web resources and services.